Retour au catalogue

STARLINK-36959

ActifCommunicationsVLEO
NORAD 68060·PAYLOAD·🇺🇸 United States

Lancé Mar 2, 2026 depuis Vandenberg Space Force Base

Loading…

Prochains Passages (prochaines 24 heures)

TLE

FraisSource: CelesTrak SupGP

Époque: Sep 15, 2026, 03:55 UTC

1 68060C 26041W   26258.16368056 -.00048482  00000+0 -14324-2 0  2582
2 68060  53.1579 244.6187 0001569  87.7547 157.5070 15.34413410    15

Suivez STARLINK-36959 en temps réel avec AllMySat

Download on the App Store